Year,Month,Day,Hour,Minute,Value (Times are PST for temperature in C)
2011,09,23,00,00,14.60
2011,09,23,00,01,14.70
2011,09,23,00,02,14.70
2011,09,23,00,03,14.70
2011,09,23,00,04,14.70
2011,09,23,00,05,14.70
2011,09,23,00,06,14.70
2011,09,23,00,07,14.70
2011,09,23,00,08,14.70
2011,09,23,00,09,14.70
2011,09,23,00,10,14.70
2011,09,23,00,11,14.70
2011,09,23,00,12,14.70
2011,09,23,00,13,14.80
2011,09,23,00,14,14.80
2011,09,23,00,15,14.80
2011,09,23,00,16,14.80
2011,09,23,00,17,14.80
2011,09,23,00,18,14.90
2011,09,23,00,19,15.00
2011,09,23,00,20,15.00
2011,09,23,00,21,15.00
2011,09,23,00,22,15.00
2011,09,23,00,23,15.00
2011,09,23,00,24,15.00
2011,09,23,00,25,15.00
2011,09,23,00,26,15.00
2011,09,23,00,27,15.00
2011,09,23,00,28,15.00
2011,09,23,00,29,15.00
2011,09,23,00,30,15.00
2011,09,23,00,31,15.00
2011,09,23,00,32,15.00
2011,09,23,00,33,15.00
2011,09,23,00,34,15.00
2011,09,23,00,35,15.00
2011,09,23,00,36,15.00
2011,09,23,00,37,15.00
2011,09,23,00,38,15.00
2011,09,23,00,39,15.00
2011,09,23,00,40,15.00
2011,09,23,00,41,15.00
2011,09,23,00,42,15.00
2011,09,23,00,43,15.00
2011,09,23,00,44,15.00
2011,09,23,00,45,15.00
2011,09,23,00,46,15.00
2011,09,23,00,47,15.00
2011,09,23,00,48,15.00
2011,09,23,00,49,15.00
2011,09,23,00,50,15.00
2011,09,23,00,51,15.10
2011,09,23,00,52,15.10
2011,09,23,00,53,15.10
2011,09,23,00,54,15.10
2011,09,23,00,55,15.10
2011,09,23,00,56,15.10
2011,09,23,00,57,15.10
2011,09,23,00,58,15.10
2011,09,23,00,59,15.10
2011,09,23,01,00,15.10
2011,09,23,01,01,15.10
2011,09,23,01,02,15.10
2011,09,23,01,03,15.10
2011,09,23,01,04,15.10
2011,09,23,01,05,15.20
2011,09,23,01,06,15.10
2011,09,23,01,07,15.10
2011,09,23,01,08,15.10
2011,09,23,01,09,15.10
2011,09,23,01,10,15.10
2011,09,23,01,11,15.10
2011,09,23,01,12,15.10
2011,09,23,01,13,15.10
2011,09,23,01,14,15.10
2011,09,23,01,15,15.10
2011,09,23,01,16,15.20
2011,09,23,01,17,15.20
2011,09,23,01,18,15.20
2011,09,23,01,19,15.20
2011,09,23,01,20,15.20
2011,09,23,01,21,15.20
2011,09,23,01,22,15.20
2011,09,23,01,23,15.20
2011,09,23,01,24,15.20
2011,09,23,01,25,15.20
2011,09,23,01,26,15.20
2011,09,23,01,27,15.20
2011,09,23,01,28,15.20
2011,09,23,01,29,15.20
2011,09,23,01,30,15.20
2011,09,23,01,31,15.20
2011,09,23,01,32,15.20
2011,09,23,01,33,15.20
2011,09,23,01,34,15.20
2011,09,23,01,35,15.20
2011,09,23,01,36,15.20
2011,09,23,01,37,15.30
2011,09,23,01,38,15.30
2011,09,23,01,39,15.30
2011,09,23,01,40,15.30
2011,09,23,01,41,15.30
2011,09,23,01,42,15.30
2011,09,23,01,43,15.30
2011,09,23,01,44,15.30
2011,09,23,01,45,15.30
2011,09,23,01,46,15.30
2011,09,23,01,47,15.30
2011,09,23,01,48,15.30
2011,09,23,01,49,15.30
2011,09,23,01,50,15.30
2011,09,23,01,51,15.30
2011,09,23,01,52,15.30
2011,09,23,01,53,15.30
2011,09,23,01,54,15.30
2011,09,23,01,55,15.30
2011,09,23,01,56,15.30
2011,09,23,01,57,15.30
2011,09,23,01,58,15.30
2011,09,23,01,59,15.30
2011,09,23,02,00,15.30
2011,09,23,02,01,15.40
2011,09,23,02,02,15.40
2011,09,23,02,03,15.40
2011,09,23,02,04,15.40
2011,09,23,02,05,15.40
2011,09,23,02,06,15.40
2011,09,23,02,07,15.40
2011,09,23,02,08,15.40
2011,09,23,02,09,15.40
2011,09,23,02,10,15.40
2011,09,23,02,11,15.40
2011,09,23,02,12,15.40
2011,09,23,02,13,15.40
2011,09,23,02,14,15.40
2011,09,23,02,15,15.40
2011,09,23,02,16,15.40
2011,09,23,02,17,15.40
2011,09,23,02,18,15.40
2011,09,23,02,19,15.40
2011,09,23,02,20,15.40
2011,09,23,02,21,15.40
2011,09,23,02,22,15.40
2011,09,23,02,23,15.40
2011,09,23,02,24,15.40
2011,09,23,02,25,15.40
2011,09,23,02,26,15.40
2011,09,23,02,27,15.40
2011,09,23,02,28,15.40
2011,09,23,02,29,15.40
2011,09,23,02,30,15.40
2011,09,23,02,31,15.40
2011,09,23,02,32,15.40
2011,09,23,02,33,15.40
2011,09,23,02,34,15.30
2011,09,23,02,35,15.30
2011,09,23,02,36,15.20
2011,09,23,02,37,15.10
2011,09,23,02,38,15.00
2011,09,23,02,39,15.00
2011,09,23,02,40,15.00
2011,09,23,02,41,15.00
2011,09,23,02,42,15.00
2011,09,23,02,43,15.00
2011,09,23,02,44,15.00
2011,09,23,02,45,14.90
2011,09,23,02,46,14.80
2011,09,23,02,47,14.80
2011,09,23,02,48,14.80
2011,09,23,02,49,14.80
2011,09,23,02,50,14.70
2011,09,23,02,51,14.70
2011,09,23,02,52,14.70
2011,09,23,02,53,14.70
2011,09,23,02,54,14.60
2011,09,23,02,55,14.60
2011,09,23,02,56,14.60
2011,09,23,02,57,14.60
2011,09,23,02,58,14.60
2011,09,23,02,59,14.60
2011,09,23,03,00,14.50
2011,09,23,03,01,14.50
2011,09,23,03,02,14.50
2011,09,23,03,03,14.50
2011,09,23,03,04,14.40
2011,09,23,03,05,14.40
2011,09,23,03,06,14.40
2011,09,23,03,07,14.40
2011,09,23,03,08,14.40
2011,09,23,03,09,14.40
2011,09,23,03,10,14.30
2011,09,23,03,11,14.30
2011,09,23,03,12,14.30
2011,09,23,03,13,14.20
2011,09,23,03,14,14.20
2011,09,23,03,15,14.20
2011,09,23,03,16,14.20
2011,09,23,03,17,14.20
2011,09,23,03,18,14.20
2011,09,23,03,19,14.20
2011,09,23,03,20,14.20
2011,09,23,03,21,14.10
2011,09,23,03,22,14.10
2011,09,23,03,23,14.10
2011,09,23,03,24,14.10
2011,09,23,03,25,14.10
2011,09,23,03,26,14.10
2011,09,23,03,27,14.10
2011,09,23,03,28,14.10
2011,09,23,03,29,14.10
2011,09,23,03,30,14.10
2011,09,23,03,31,14.00
2011,09,23,03,32,14.00
2011,09,23,03,33,14.00
2011,09,23,03,34,14.00
2011,09,23,03,35,14.00
2011,09,23,03,36,14.00
2011,09,23,03,37,14.00
2011,09,23,03,38,14.00
2011,09,23,03,39,14.00
2011,09,23,03,40,14.00
2011,09,23,03,41,14.00
2011,09,23,03,42,13.90
2011,09,23,03,43,13.90
2011,09,23,03,44,13.90
2011,09,23,03,45,13.90
2011,09,23,03,46,13.90
2011,09,23,03,47,13.90
2011,09,23,03,48,13.90
2011,09,23,03,49,13.90
2011,09,23,03,50,13.90
2011,09,23,03,51,13.90
2011,09,23,03,52,13.90
2011,09,23,03,53,13.90
2011,09,23,03,54,13.80
2011,09,23,03,55,13.80
2011,09,23,03,56,13.80
2011,09,23,03,57,13.80
2011,09,23,03,58,13.80
2011,09,23,03,59,13.80
2011,09,23,04,00,13.80
2011,09,23,04,01,13.70
2011,09,23,04,02,13.70
2011,09,23,04,03,13.70
2011,09,23,04,04,13.70
2011,09,23,04,05,13.70
2011,09,23,04,06,13.70
2011,09,23,04,07,13.70
2011,09,23,04,08,13.70
2011,09,23,04,09,13.70
2011,09,23,04,10,13.70
2011,09,23,04,11,13.70
2011,09,23,04,12,13.70
2011,09,23,04,13,13.70
2011,09,23,04,14,13.70
2011,09,23,04,15,13.70
2011,09,23,04,16,13.70
2011,09,23,04,17,13.80
2011,09,23,04,18,13.80
2011,09,23,04,19,13.80
2011,09,23,04,20,13.80
2011,09,23,04,21,13.80
2011,09,23,04,22,13.80
2011,09,23,04,23,13.90
2011,09,23,04,24,13.90
2011,09,23,04,25,13.90
2011,09,23,04,26,13.90
2011,09,23,04,27,13.90
2011,09,23,04,28,13.90
2011,09,23,04,29,13.90
2011,09,23,04,30,13.90
2011,09,23,04,31,13.90
2011,09,23,04,32,14.00
2011,09,23,04,33,14.00
2011,09,23,04,34,14.00
2011,09,23,04,35,14.00
2011,09,23,04,36,14.00
2011,09,23,04,37,14.00
2011,09,23,04,38,14.00
2011,09,23,04,39,14.00
2011,09,23,04,40,14.00
2011,09,23,04,41,14.00
2011,09,23,04,42,14.00
2011,09,23,04,43,14.00
2011,09,23,04,44,14.00
2011,09,23,04,45,14.00
2011,09,23,04,46,14.00
2011,09,23,04,47,14.00
2011,09,23,04,48,14.00
2011,09,23,04,49,14.00
2011,09,23,04,50,14.00
2011,09,23,04,51,14.00
2011,09,23,04,52,14.00
2011,09,23,04,53,14.00
2011,09,23,04,54,14.00
2011,09,23,04,55,14.00
2011,09,23,04,56,14.00
2011,09,23,04,57,14.00
2011,09,23,04,58,14.00
2011,09,23,04,59,14.00
2011,09,23,05,00,14.00
2011,09,23,05,01,14.00
2011,09,23,05,02,14.00
2011,09,23,05,03,13.90
2011,09,23,05,04,13.90
2011,09,23,05,05,13.90
2011,09,23,05,06,13.90
2011,09,23,05,07,13.90
2011,09,23,05,08,13.90
2011,09,23,05,09,13.80
2011,09,23,05,10,13.80
2011,09,23,05,11,13.80
2011,09,23,05,12,13.70
2011,09,23,05,13,13.70
2011,09,23,05,14,13.60
2011,09,23,05,15,13.60
2011,09,23,05,16,13.50
2011,09,23,05,17,13.40
2011,09,23,05,18,13.40
2011,09,23,05,19,13.30
2011,09,23,05,20,13.30
2011,09,23,05,21,13.30
2011,09,23,05,22,13.20
2011,09,23,05,23,13.20
2011,09,23,05,24,13.20
2011,09,23,05,25,13.20
2011,09,23,05,26,13.20
2011,09,23,05,27,13.20
2011,09,23,05,28,13.10
2011,09,23,05,29,13.10
2011,09,23,05,30,13.00
2011,09,23,05,31,13.00
2011,09,23,05,32,13.00
2011,09,23,05,33,12.90
2011,09,23,05,34,12.90
2011,09,23,05,35,12.90
2011,09,23,05,36,12.80
2011,09,23,05,37,12.80
2011,09,23,05,38,12.80
2011,09,23,05,39,12.70
2011,09,23,05,40,12.70
2011,09,23,05,41,12.70
2011,09,23,05,42,12.70
2011,09,23,05,43,12.70
2011,09,23,05,44,12.70
2011,09,23,05,45,12.70
2011,09,23,05,46,12.70
2011,09,23,05,47,12.60
2011,09,23,05,48,12.60
2011,09,23,05,49,12.60
2011,09,23,05,50,12.60
2011,09,23,05,51,12.60
2011,09,23,05,52,12.70
2011,09,23,05,53,12.70
2011,09,23,05,54,12.70
2011,09,23,05,55,12.70
2011,09,23,05,56,12.70
2011,09,23,05,57,12.70
2011,09,23,05,58,12.80
2011,09,23,05,59,12.80
2011,09,23,06,00,12.90
2011,09,23,06,01,12.90
2011,09,23,06,02,12.90
2011,09,23,06,03,12.90
2011,09,23,06,04,12.90
2011,09,23,06,05,12.90
2011,09,23,06,06,12.90
2011,09,23,06,07,12.80
2011,09,23,06,08,12.80
2011,09,23,06,09,12.80
2011,09,23,06,10,12.70
2011,09,23,06,11,12.70
2011,09,23,06,12,12.70
2011,09,23,06,13,12.60
2011,09,23,06,14,12.60
2011,09,23,06,15,12.60
2011,09,23,06,16,12.60
2011,09,23,06,17,12.60
2011,09,23,06,18,12.60
2011,09,23,06,19,12.60
2011,09,23,06,20,12.70
2011,09,23,06,21,12.80
2011,09,23,06,22,12.90
2011,09,23,06,23,12.90
2011,09,23,06,24,12.90
2011,09,23,06,25,12.90
2011,09,23,06,26,12.90
2011,09,23,06,27,12.80
2011,09,23,06,28,12.80
2011,09,23,06,29,12.80
2011,09,23,06,30,12.80
2011,09,23,06,31,12.80
2011,09,23,06,32,12.80
2011,09,23,06,33,12.80
2011,09,23,06,34,12.80
2011,09,23,06,35,12.80
2011,09,23,06,36,12.80
2011,09,23,06,37,12.80
2011,09,23,06,38,12.80
2011,09,23,06,39,12.80
2011,09,23,06,40,12.80
2011,09,23,06,41,12.80
2011,09,23,06,42,12.80
2011,09,23,06,43,12.80
2011,09,23,06,44,12.80
2011,09,23,06,45,12.80
2011,09,23,06,46,12.80
2011,09,23,06,47,12.80
2011,09,23,06,48,12.80
2011,09,23,06,49,12.80
2011,09,23,06,50,12.80
2011,09,23,06,51,12.80
2011,09,23,06,52,12.80
2011,09,23,06,53,12.80
2011,09,23,06,54,12.70
2011,09,23,06,55,12.70
2011,09,23,06,56,12.70
2011,09,23,06,57,12.80
2011,09,23,06,58,12.80
2011,09,23,06,59,12.80
2011,09,23,07,00,12.90
2011,09,23,07,01,12.90
2011,09,23,07,02,12.90
2011,09,23,07,03,12.90
2011,09,23,07,04,12.90
2011,09,23,07,05,12.90
2011,09,23,07,06,12.90
2011,09,23,07,07,12.90
2011,09,23,07,08,12.80
2011,09,23,07,09,12.80
2011,09,23,07,10,12.80
2011,09,23,07,11,12.80
2011,09,23,07,12,12.80
2011,09,23,07,13,12.80
2011,09,23,07,14,12.90
2011,09,23,07,15,12.90
2011,09,23,07,16,12.90
2011,09,23,07,17,12.90
2011,09,23,07,18,13.00
2011,09,23,07,19,13.00
2011,09,23,07,20,13.00
2011,09,23,07,21,13.00
2011,09,23,07,22,12.90
2011,09,23,07,23,13.00
2011,09,23,07,24,13.00
2011,09,23,07,25,13.00
2011,09,23,07,26,13.10
2011,09,23,07,27,13.10
2011,09,23,07,28,13.20
2011,09,23,07,29,13.20
2011,09,23,07,30,13.20
2011,09,23,07,31,13.20
2011,09,23,07,32,13.20
2011,09,23,07,33,13.20
2011,09,23,07,34,13.20
2011,09,23,07,35,13.30
2011,09,23,07,36,13.30
2011,09,23,07,37,13.30
2011,09,23,07,38,13.30
2011,09,23,07,39,13.30
2011,09,23,07,40,13.30
2011,09,23,07,41,13.30
2011,09,23,07,42,13.40
2011,09,23,07,43,13.40
2011,09,23,07,44,13.50
2011,09,23,07,45,13.60
2011,09,23,07,46,13.60
2011,09,23,07,47,13.80
2011,09,23,07,48,13.90
2011,09,23,07,49,14.00
2011,09,23,07,50,14.00
2011,09,23,07,51,14.10
2011,09,23,07,52,14.20
2011,09,23,07,53,14.30
2011,09,23,07,54,14.30
2011,09,23,07,55,14.50
2011,09,23,07,56,14.60
2011,09,23,07,57,14.60
2011,09,23,07,58,14.70
2011,09,23,07,59,14.80
2011,09,23,08,00,14.90
2011,09,23,08,01,15.00
2011,09,23,08,02,15.00
2011,09,23,08,03,15.00
2011,09,23,08,04,15.00
2011,09,23,08,05,15.10
2011,09,23,08,06,15.20
2011,09,23,08,07,15.30
2011,09,23,08,08,15.30
2011,09,23,08,09,15.30
2011,09,23,08,10,15.30
2011,09,23,08,11,15.40
2011,09,23,08,12,15.40
2011,09,23,08,13,15.40
2011,09,23,08,14,15.40
2011,09,23,08,15,15.40
2011,09,23,08,16,15.40
2011,09,23,08,17,15.50
2011,09,23,08,18,15.50
2011,09,23,08,19,15.50
2011,09,23,08,20,15.50
2011,09,23,08,21,15.40
2011,09,23,08,22,15.40
2011,09,23,08,23,15.40
2011,09,23,08,24,15.30
2011,09,23,08,25,15.30
2011,09,23,08,26,15.20
2011,09,23,08,27,15.20
2011,09,23,08,28,15.20
2011,09,23,08,29,15.10
2011,09,23,08,30,15.00
2011,09,23,08,31,15.00
2011,09,23,08,32,15.00
2011,09,23,08,33,15.00
2011,09,23,08,34,15.00
2011,09,23,08,35,15.00
2011,09,23,08,36,15.00
2011,09,23,08,37,15.00
2011,09,23,08,38,14.90
2011,09,23,08,39,14.90
2011,09,23,08,40,14.80
2011,09,23,08,41,14.80
2011,09,23,08,42,14.70
2011,09,23,08,43,14.70
2011,09,23,08,44,14.70
2011,09,23,08,45,14.60
2011,09,23,08,46,14.60
2011,09,23,08,47,14.50
2011,09,23,08,48,14.50
2011,09,23,08,49,14.40
2011,09,23,08,50,14.40
2011,09,23,08,51,14.30
2011,09,23,08,52,14.30
2011,09,23,08,53,14.30
2011,09,23,08,54,14.30
2011,09,23,08,55,14.20
2011,09,23,08,56,14.20
2011,09,23,08,57,14.20
2011,09,23,08,58,14.20
2011,09,23,08,59,14.20
2011,09,23,09,00,14.20
2011,09,23,09,01,14.20
2011,09,23,09,02,14.20
2011,09,23,09,03,14.20
2011,09,23,09,04,14.20
2011,09,23,09,05,14.20
2011,09,23,09,06,14.30
2011,09,23,09,07,14.30
2011,09,23,09,08,14.30
2011,09,23,09,09,14.40
2011,09,23,09,10,14.40
2011,09,23,09,11,14.50
2011,09,23,09,12,14.50
2011,09,23,09,13,14.50
2011,09,23,09,14,14.60
2011,09,23,09,15,14.60
2011,09,23,09,16,14.70
2011,09,23,09,17,14.70
2011,09,23,09,18,14.80
2011,09,23,09,19,14.80
2011,09,23,09,20,14.90
2011,09,23,09,21,15.00
2011,09,23,09,22,15.00
2011,09,23,09,23,15.00
2011,09,23,09,24,15.00
2011,09,23,09,25,15.00
2011,09,23,09,26,15.00
2011,09,23,09,27,15.00
2011,09,23,09,28,15.10
2011,09,23,09,29,15.10
2011,09,23,09,30,15.20
2011,09,23,09,31,15.30
2011,09,23,09,32,15.30
2011,09,23,09,33,15.20
2011,09,23,09,34,15.10
2011,09,23,09,35,15.00
2011,09,23,09,36,15.00
2011,09,23,09,37,15.00
2011,09,23,09,38,15.00
2011,09,23,09,39,14.90
2011,09,23,09,40,14.80
2011,09,23,09,41,14.80
2011,09,23,09,42,14.70
2011,09,23,09,43,14.70
2011,09,23,09,44,14.60
2011,09,23,09,45,14.60
2011,09,23,09,46,14.60
2011,09,23,09,47,14.60
2011,09,23,09,48,14.60
2011,09,23,09,49,14.60
2011,09,23,09,50,14.60
2011,09,23,09,51,14.70
2011,09,23,09,52,14.60
2011,09,23,09,53,14.60
2011,09,23,09,54,14.60
2011,09,23,09,55,14.70
2011,09,23,09,56,14.70
2011,09,23,09,57,14.70
2011,09,23,09,58,14.80
2011,09,23,09,59,14.80
2011,09,23,10,00,14.80
2011,09,23,10,01,14.80
2011,09,23,10,02,14.90
2011,09,23,10,03,14.90
2011,09,23,10,04,15.00
2011,09,23,10,05,15.00
2011,09,23,10,06,15.00
2011,09,23,10,07,15.00
2011,09,23,10,08,15.00
2011,09,23,10,09,15.00
2011,09,23,10,10,15.00
2011,09,23,10,11,15.10
2011,09,23,10,12,15.20
2011,09,23,10,13,15.20
2011,09,23,10,14,15.30
2011,09,23,10,15,15.30
2011,09,23,10,16,15.40
2011,09,23,10,17,15.40
2011,09,23,10,18,15.50
2011,09,23,10,19,15.60
2011,09,23,10,20,15.70
2011,09,23,10,21,15.70
2011,09,23,10,22,15.80
2011,09,23,10,23,15.80
2011,09,23,10,24,15.90
2011,09,23,10,25,15.90
2011,09,23,10,26,16.00
2011,09,23,10,27,16.00
2011,09,23,10,28,16.10
2011,09,23,10,29,16.10
2011,09,23,10,30,16.20
2011,09,23,10,31,16.30
2011,09,23,10,32,16.30
2011,09,23,10,33,16.40
2011,09,23,10,34,16.50
2011,09,23,10,35,16.60
2011,09,23,10,36,16.60
2011,09,23,10,37,16.70
2011,09,23,10,38,16.70
2011,09,23,10,39,16.80
2011,09,23,10,40,16.80
2011,09,23,10,41,16.80
2011,09,23,10,42,16.80
2011,09,23,10,43,16.80
2011,09,23,10,44,16.90
2011,09,23,10,45,16.90
2011,09,23,10,46,17.00
2011,09,23,10,47,17.10
2011,09,23,10,48,17.20
2011,09,23,10,49,17.20
2011,09,23,10,50,17.30
2011,09,23,10,51,17.30
2011,09,23,10,52,17.30
2011,09,23,10,53,17.30
2011,09,23,10,54,17.30
2011,09,23,10,55,17.40
2011,09,23,10,56,17.40
2011,09,23,10,57,17.40
2011,09,23,10,58,17.50
2011,09,23,10,59,17.50
2011,09,23,11,00,17.60
2011,09,23,11,01,17.60
2011,09,23,11,02,17.60
2011,09,23,11,03,17.60
2011,09,23,11,04,17.60
2011,09,23,11,05,17.70
2011,09,23,11,06,17.70
2011,09,23,11,07,17.80
2011,09,23,11,08,17.80
2011,09,23,11,09,17.90
2011,09,23,11,10,17.90
2011,09,23,11,11,18.00
2011,09,23,11,12,18.00
2011,09,23,11,13,18.10
2011,09,23,11,14,18.10
2011,09,23,11,15,18.20
2011,09,23,11,16,18.20
2011,09,23,11,17,18.30
2011,09,23,11,18,18.30
2011,09,23,11,19,18.30
2011,09,23,11,20,18.30
2011,09,23,11,21,18.40
2011,09,23,11,22,18.40
2011,09,23,11,23,18.50
2011,09,23,11,24,18.50
2011,09,23,11,25,18.60
2011,09,23,11,26,18.70
2011,09,23,11,27,18.70
2011,09,23,11,28,18.80
2011,09,23,11,29,18.80
2011,09,23,11,30,18.80
2011,09,23,11,31,18.80
2011,09,23,11,32,18.90
2011,09,23,11,33,18.90
2011,09,23,11,34,18.90
2011,09,23,11,35,18.90
2011,09,23,11,36,18.90
2011,09,23,11,37,19.00
2011,09,23,11,38,19.10
2011,09,23,11,39,19.10
2011,09,23,11,40,19.20
2011,09,23,11,41,19.20
2011,09,23,11,42,19.10
2011,09,23,11,43,19.00
2011,09,23,11,44,19.00
2011,09,23,11,45,18.90
2011,09,23,11,46,18.90
2011,09,23,11,47,19.00
2011,09,23,11,48,19.00
2011,09,23,11,49,18.90
2011,09,23,11,50,18.90
2011,09,23,11,51,18.90
2011,09,23,11,52,18.90
2011,09,23,11,53,18.90
2011,09,23,11,54,19.00
2011,09,23,11,55,19.00
2011,09,23,11,56,19.00
2011,09,23,11,57,19.10
2011,09,23,11,58,19.10
2011,09,23,11,59,19.10
2011,09,23,12,00,19.10
2011,09,23,12,01,19.10
2011,09,23,12,02,19.00
2011,09,23,12,03,19.00
2011,09,23,12,04,19.00
2011,09,23,12,05,19.00
2011,09,23,12,06,18.90
2011,09,23,12,07,18.80
2011,09,23,12,08,18.80
2011,09,23,12,09,18.70
2011,09,23,12,10,18.50
2011,09,23,12,11,18.50
2011,09,23,12,12,18.40
2011,09,23,12,13,18.40
2011,09,23,12,14,18.40
2011,09,23,12,15,18.30
2011,09,23,12,16,18.20
2011,09,23,12,17,18.20
2011,09,23,12,18,18.10
2011,09,23,12,19,18.00
2011,09,23,12,20,17.90
2011,09,23,12,21,17.80
2011,09,23,12,22,17.80
2011,09,23,12,23,17.80
2011,09,23,12,24,17.80
2011,09,23,12,25,17.80
2011,09,23,12,26,17.80
2011,09,23,12,27,17.80
2011,09,23,12,28,17.80
2011,09,23,12,29,17.70
2011,09,23,12,30,17.80
2011,09,23,12,31,17.80
2011,09,23,12,32,17.90
2011,09,23,12,33,18.00
2011,09,23,12,34,18.10
2011,09,23,12,35,18.10
2011,09,23,12,36,18.20
2011,09,23,12,37,18.20
2011,09,23,12,38,18.30
2011,09,23,12,39,18.40
2011,09,23,12,40,18.50
2011,09,23,12,41,18.60
2011,09,23,12,42,18.70
2011,09,23,12,43,18.80
2011,09,23,12,44,18.80
2011,09,23,12,45,18.90
2011,09,23,12,46,19.00
2011,09,23,12,47,19.10
2011,09,23,12,48,19.30
2011,09,23,12,49,19.40
2011,09,23,12,50,19.40
2011,09,23,12,51,19.50
2011,09,23,12,52,19.60
2011,09,23,12,53,19.70
2011,09,23,12,54,19.80
2011,09,23,12,55,20.00
2011,09,23,12,56,20.20
2011,09,23,12,57,20.30
2011,09,23,12,58,20.40
2011,09,23,12,59,20.50
2011,09,23,13,00,20.60
2011,09,23,13,01,20.70
2011,09,23,13,02,20.70
2011,09,23,13,03,20.70
2011,09,23,13,04,20.70
2011,09,23,13,05,20.50
2011,09,23,13,06,20.30
2011,09,23,13,07,20.00
2011,09,23,13,08,19.90
2011,09,23,13,09,19.70
2011,09,23,13,10,19.60
2011,09,23,13,11,19.50
2011,09,23,13,12,19.40
2011,09,23,13,13,19.40
2011,09,23,13,14,19.30
2011,09,23,13,15,19.30
2011,09,23,13,16,19.20
2011,09,23,13,17,19.20
2011,09,23,13,18,19.20
2011,09,23,13,19,19.10
2011,09,23,13,20,19.00
2011,09,23,13,21,18.90
2011,09,23,13,22,18.80
2011,09,23,13,23,18.80
2011,09,23,13,24,18.90
2011,09,23,13,25,19.00
2011,09,23,13,26,19.10
2011,09,23,13,27,19.10
2011,09,23,13,28,19.00
2011,09,23,13,29,19.10
2011,09,23,13,30,19.20
2011,09,23,13,31,19.30
2011,09,23,13,32,19.30
2011,09,23,13,33,19.30
2011,09,23,13,34,19.30
2011,09,23,13,35,19.20
2011,09,23,13,36,19.20
2011,09,23,13,37,19.20
2011,09,23,13,38,19.20
2011,09,23,13,39,19.30
2011,09,23,13,40,19.40
2011,09,23,13,41,19.40
2011,09,23,13,42,19.60
2011,09,23,13,43,19.70
2011,09,23,13,44,19.80
2011,09,23,13,45,19.90
2011,09,23,13,46,20.00
2011,09,23,13,47,20.10
2011,09,23,13,48,20.20
2011,09,23,13,49,20.30
2011,09,23,13,50,20.50
2011,09,23,13,51,20.60
2011,09,23,13,52,20.60
2011,09,23,13,53,20.70
2011,09,23,13,54,20.70
2011,09,23,13,55,20.70
2011,09,23,13,56,20.70
2011,09,23,13,57,20.70
2011,09,23,13,58,20.70
2011,09,23,13,59,20.70
2011,09,23,14,00,20.80
2011,09,23,14,01,20.90
2011,09,23,14,02,21.00
2011,09,23,14,03,21.00
2011,09,23,14,04,21.10
2011,09,23,14,05,21.30
2011,09,23,14,06,21.30
2011,09,23,14,07,21.40
2011,09,23,14,08,21.50
2011,09,23,14,09,21.60
2011,09,23,14,10,21.70
2011,09,23,14,11,21.80
2011,09,23,14,12,21.90
2011,09,23,14,13,22.00
2011,09,23,14,14,22.00
2011,09,23,14,15,22.10
2011,09,23,14,16,22.10
2011,09,23,14,17,22.10
2011,09,23,14,18,22.10
2011,09,23,14,19,22.10
2011,09,23,14,20,21.90
2011,09,23,14,21,21.70
2011,09,23,14,22,21.40
2011,09,23,14,23,21.00
2011,09,23,14,24,20.80
2011,09,23,14,25,20.60
2011,09,23,14,26,20.60
2011,09,23,14,27,20.60
2011,09,23,14,28,20.70
2011,09,23,14,29,20.80
2011,09,23,14,30,20.90
2011,09,23,14,31,21.10
2011,09,23,14,32,21.30
2011,09,23,14,33,21.40
2011,09,23,14,34,21.60
2011,09,23,14,35,21.80
2011,09,23,14,36,21.90
2011,09,23,14,37,22.00
2011,09,23,14,38,22.10
2011,09,23,14,39,22.20
2011,09,23,14,40,22.30
2011,09,23,14,41,22.30
2011,09,23,14,42,22.40
2011,09,23,14,43,22.50
2011,09,23,14,44,22.50
2011,09,23,14,45,22.70
2011,09,23,14,46,22.70
2011,09,23,14,47,22.70
2011,09,23,14,48,22.70
2011,09,23,14,49,22.80
2011,09,23,14,50,22.80
2011,09,23,14,51,22.90
2011,09,23,14,52,22.80
2011,09,23,14,53,22.80
2011,09,23,14,54,22.70
2011,09,23,14,55,22.70
2011,09,23,14,56,22.70
2011,09,23,14,57,22.70
2011,09,23,14,58,22.80
2011,09,23,14,59,22.80
2011,09,23,15,00,22.80
2011,09,23,15,01,22.80
2011,09,23,15,02,22.70
2011,09,23,15,03,22.70
2011,09,23,15,04,22.70
2011,09,23,15,05,22.80
2011,09,23,15,06,22.90
2011,09,23,15,07,23.00
2011,09,23,15,08,23.10
2011,09,23,15,09,23.10
2011,09,23,15,10,23.20
2011,09,23,15,11,23.30
2011,09,23,15,12,23.40
2011,09,23,15,13,23.50
2011,09,23,15,14,23.70
2011,09,23,15,15,23.70
2011,09,23,15,16,23.70
2011,09,23,15,17,23.70
2011,09,23,15,18,23.70
2011,09,23,15,19,23.70
2011,09,23,15,20,23.70
2011,09,23,15,21,23.70
2011,09,23,15,22,23.60
2011,09,23,15,23,23.60
2011,09,23,15,24,23.50
2011,09,23,15,25,23.50
2011,09,23,15,26,23.40
2011,09,23,15,27,23.50
2011,09,23,15,28,23.50
2011,09,23,15,29,23.50
2011,09,23,15,30,23.50
2011,09,23,15,31,23.40
2011,09,23,15,32,23.40
2011,09,23,15,33,23.50
2011,09,23,15,34,23.60
2011,09,23,15,35,23.70
2011,09,23,15,36,23.80
2011,09,23,15,37,23.90
2011,09,23,15,38,24.00
2011,09,23,15,39,23.90
2011,09,23,15,40,23.80
2011,09,23,15,41,23.70
2011,09,23,15,42,23.50
2011,09,23,15,43,23.40
2011,09,23,15,44,23.20
2011,09,23,15,45,23.00
2011,09,23,15,46,22.80
2011,09,23,15,47,22.60
2011,09,23,15,48,22.50
2011,09,23,15,49,22.40
2011,09,23,15,50,22.30
2011,09,23,15,51,22.30
2011,09,23,15,52,22.30
2011,09,23,15,53,22.30
2011,09,23,15,54,22.20
2011,09,23,15,55,22.20
2011,09,23,15,56,22.20
2011,09,23,15,57,22.10
2011,09,23,15,58,22.10
2011,09,23,15,59,22.10
2011,09,23,16,00,22.10
2011,09,23,16,01,22.00
2011,09,23,16,02,21.90
2011,09,23,16,03,21.90
2011,09,23,16,04,21.90
2011,09,23,16,05,21.90
2011,09,23,16,06,21.90
2011,09,23,16,07,21.90
2011,09,23,16,08,21.90
2011,09,23,16,09,21.90
2011,09,23,16,10,21.90
2011,09,23,16,11,21.90
2011,09,23,16,12,21.90
2011,09,23,16,13,22.00
2011,09,23,16,14,22.10
2011,09,23,16,15,22.20
2011,09,23,16,16,22.20
2011,09,23,16,17,22.30
2011,09,23,16,18,22.40
2011,09,23,16,19,22.50
2011,09,23,16,20,22.60
2011,09,23,16,21,22.60
2011,09,23,16,22,22.60
2011,09,23,16,23,22.60
2011,09,23,16,24,22.60
2011,09,23,16,25,22.60
2011,09,23,16,26,22.60
2011,09,23,16,27,22.60
2011,09,23,16,28,22.50
2011,09,23,16,29,22.50
2011,09,23,16,30,22.50
2011,09,23,16,31,22.50
2011,09,23,16,32,22.50
2011,09,23,16,33,22.60
2011,09,23,16,34,22.60
2011,09,23,16,35,22.60
2011,09,23,16,36,22.70
2011,09,23,16,37,22.70
2011,09,23,16,38,22.70
2011,09,23,16,39,22.80
2011,09,23,16,40,22.80
2011,09,23,16,41,22.80
2011,09,23,16,42,22.80
2011,09,23,16,43,22.80
2011,09,23,16,44,22.80
2011,09,23,16,45,22.80
2011,09,23,16,46,22.80
2011,09,23,16,47,22.80
2011,09,23,16,48,22.90
2011,09,23,16,49,23.00
2011,09,23,16,50,23.10
2011,09,23,16,51,23.20
2011,09,23,16,52,23.30
2011,09,23,16,53,23.40
2011,09,23,16,54,23.50
2011,09,23,16,55,23.50
2011,09,23,16,56,23.60
2011,09,23,16,57,23.70
2011,09,23,16,58,23.80
2011,09,23,16,59,23.80
2011,09,23,17,00,23.90
2011,09,23,17,01,23.90
2011,09,23,17,02,24.00
2011,09,23,17,03,24.00
2011,09,23,17,04,24.00
2011,09,23,17,05,24.00
2011,09,23,17,06,24.00
2011,09,23,17,07,23.90
2011,09,23,17,08,23.90
2011,09,23,17,09,23.90
2011,09,23,17,10,23.90
2011,09,23,17,11,23.90
2011,09,23,17,12,23.80
2011,09,23,17,13,23.80
2011,09,23,17,14,23.70
2011,09,23,17,15,23.60
2011,09,23,17,16,23.60
2011,09,23,17,17,23.50
2011,09,23,17,18,23.40
2011,09,23,17,19,23.40